Regional Weather Roundup
Issued by NWS

Home | Current Version | Previous Version | Graphics & Text | Print | Product List | Glossary On
Versions: 1 2 3 4 5 6 7 8 9 10 11 12 13 14 15 16 17 18 19 20 21 22 23 24 25 26 27 28 29 30 31 32 33 34 35 36 37 38 39 40 41 42 43 44 45 46 47 48 49 50
000
ASUS43 KTOP 210759
RWRKS

WEATHER ROUNDUP FOR KANSAS
NATIONAL WEATHER SERVICE GOODLAND KS
200 AM CST TUE NOV 21 2017

NOTE:  "FAIR" INDICATES FEW OR NO CLOUDS BELOW 12,000 FEET WITH NO
SIGNIFICANT WEATHER AND/OR OBSTRUCTIONS TO VISIBILITY.

KSZ001>006-013>018-027>032-041>047-210900-
NORTHWEST KANSAS

CITY           SKY/WX    TMP DP  RH WIND       PRES   REMARKS
GOODLAND       CLOUDY    45  21  38 W7        29.85R
HAYS           CLOUDY    47  24  40 N9        29.75F
HILL CITY      MOCLDY    49  25  39 N9        29.78S
RUSSELL        MOCLDY    42  27  55 NW6       29.74S
$$

KSZ061>065-074>080-084>089-210900-
SOUTHWEST KANSAS

CITY           SKY/WX    TMP DP  RH WIND       PRES   REMARKS
DODGE CITY     CLOUDY    46  20  35 N7        29.78R
GARDEN CITY    PTCLDY    41  19  41 NW12      29.80S
GREAT BEND     CLOUDY    41  24  51 W3        29.75S
LIBERAL        CLOUDY    35  18  49 W9        29.80S
$$

KSZ066>073-081>083-090>101-210900-
SOUTHEAST KANSAS

CITY           SKY/WX    TMP DP  RH WIND       PRES   REMARKS
CHANUTE        CLOUDY    48  32  53 S13       29.81R
COFFEYVILLE    CLOUDY    50  33  52 S12       29.82F
HUTCHINSON     CLOUDY    44  31  60 CALM      29.76S
MEDICINE LODGE   N/A     33  27  78 N5        29.77F
NEWTON         CLOUDY    47  30  51 SW13      29.76F
PARSONS        CLOUDY    49  32  52 S8        29.82F
WICHITA INTL   CLOUDY    41  31  67 S8        29.77F
WICHITA JABRA  CLOUDY    48  31  51 S15       29.76F
WICHITA MCCONL CLOUDY    45  29  53 SW9       29.77F
WINFIELD       CLOUDY    43  31  62 S3        29.80F
$$

KSZ007>012-019>026-033>040-048>060-102>105-210900-
NORTHEAST KANSAS

CITY           SKY/WX    TMP DP  RH WIND       PRES   REMARKS
CONCORDIA      CLOUDY    46  27  47 NW9       29.73R
EMPORIA        PTCLDY    48  30  49 S13       29.75F
LAWRENCE       PTCLDY    51  31  46 S7        29.76S
MANHATTAN      CLOUDY    50  31  48 SW6       29.74R
OLATHE IND     CLOUDY    49  31  49 SW13      29.77S
OLATHE EXE     CLOUDY    50  31  48 SW14G23   29.76S
SALINA         PTCLDY    50  28  42 CALM      29.73F
TOPEKA BILLARD CLOUDY    50  32  50 S6        29.74S
TOPEKA FORBES  PTCLDY    49  31  49 SW7       29.75R
$$



USA.gov is the U.S. government's official web portal to all federal, state and local government web resources and services.